Weather in Pokur

Russia / Khanty-Mansi Autonomous Okrug — Yugra     61°00′00″N   75°29′08″E
temp.,
°C
wind,
m/s
gust,
m/s
humid.,
%
clouds,
%
prec.,
mm/h
press.,
hPa
HPBL,
m
14 april, wed
wed1423:00+3w41098100 1.4 1024589
02:00+2ssw3899100 2.0 1020195
05:00+4w61392100 6.4 1018498
08:00+3w61295100 2.4 1017730
11:00+3wnw51197100 2.6 1018463
14:00+4wnw51098100 0.0 1020502
17:00+3wnw3796100 0.1 1022299
20:00+2wnw1199100 0.0 102317
15 april, thu
thu1523:00+2s3599100 0.0 1021118
02:00+4ssw51195100 0.1 1018278
05:00+6sw61494100 0.1 1015412
08:00+9wsw7168096 0.0 1012528
11:00+13wsw8147039 0.0 1010916
14:00+16wsw8165996 0.0 10081406
17:00+15w814545 0.0 10071222
20:00+6nnw81089100 0.1 1009418
16 april, fri
fri1623:00+2nnw51090100 0.5 1011640
02:00+1nnw4883100 0.8 1011801
05:00+1wnw5983100 0.9 1011733
08:00−2n91076100 0.1 1014876
11:00−3nnw81054100 0.2 10191596
14:00−3nnw81041100 0.0 10221812
17:00−5n794134 0.0 10251669
20:00−6n56445 0.0 10261222
17 april, sat
sat1723:00−6n23420 0.0 1026891
02:00−6ssw2345100 0.0 1025716
05:00−6s5751100 0.0 1022597
08:00−5ssw71145100 0.0 1019775
11:00−1ssw81234100 0.0 10151120
14:00+1ssw81434100 0.0 10111620
17:000ssw81348100 0.0 10081365
20:00−6w6106713 0.7 1009788
18 april, sun
sun1823:00−8wsw6974100 0.7 1007813
02:00−7wnw61087100 0.3 1004692
05:00−8nw81287100 0.7 1005808
08:00−8nw81179100 0.6 1006925
11:00−4n8972100 0.9 10071183
14:00−5nnw101274100 0.3 1010927
17:00−6nnw101585100 0.6 1013834
20:00−8nnw101681100 0.2 1016694